Point Pleasant, WV

5:58 AM EDT on October 19, 2017 (GMT -0400)
Point Pleasant

Weather History for K3I2 - December, 2011

Change the Weather History Date:

Saturday, December 17, 2011

  Actual Average (KHTS) Record (KHTS)
Temperature  
Mean Temperature 32 °F -  
Max Temperature 35 °F 43 °F 74 °F (1933)
Min Temperature 28 °F 26 °F -2 °F (1914)
Degree Days  
Heating Degree Days 34    
Moisture  
Dew Point 26 °F    
Average Humidity 75    
Maximum Humidity 93    
Minimum Humidity 65    
Precipitation  
Precipitation 0.00 in - - ()
Sea Level Pressure  
Sea Level Pressure 30.29 in    
Wind  
Wind Speed 1 mph (West)    
Max Wind Speed 9 mph    
Max Gust Speed -    
Visibility 10 miles    
Events      
Averages and records for this station are not official NWS values.
T = Trace of Precipitation, MM = Missing Value Source: NWS Daily Summary

Daily Weather History Graph

Daily Weather History Graph

Search for Another Location

Airport or City:

Trip Planner

Search our weather history database for the weather conditions in past years. The results will help you decide how hot, cold, wet, or windy it might be!

Date:

Astronomy

Dec. 17, 2011 Rise Set
Actual Time 7:40 AM EST 5:07 PM EST
Civil Twilight 7:11 AM EST 5:37 PM EST
Nautical Twilight 6:37 AM EST 6:11 PM EST
Astronomical Twilight 6:05 AM EST 6:43 PM EST
Moon No Moon Rise 11:59 AM EST (12/17)
Length of Visible Light 10h 26m
Length of Day
9h 26m
Waning Gibbous, 54% of the Moon is Illuminated
Dec 17
Waning Gibbous
Dec 17
Last Quarter
Dec 24
New
Jan 1
First Quarter
Jan 9
Full

Hourly Weather History & Observations

Time (EST) Temp. Windchill Dew Point Humidity Pressure Visibility Wind Dir Wind Speed Gust Speed Precip Events Conditions
12:15 AM 33.8 °F - 30.2 °F 87% 30.29 in 10.0 mi Calm Calm - N/A   Overcast
12:35 AM 33.8 °F - 30.2 °F 87% 30.27 in 10.0 mi Calm Calm - N/A   Overcast
12:55 AM 33.8 °F - 30.2 °F 87% 30.27 in 10.0 mi Calm Calm - N/A   Overcast
1:15 AM 33.8 °F - 30.2 °F 87% 30.30 in 10.0 mi Calm Calm - N/A   Overcast
1:35 AM 33.8 °F - 28.4 °F 81% 30.29 in 10.0 mi Calm Calm - N/A   Overcast
1:55 AM 33.8 °F - 28.4 °F 81% 30.29 in 10.0 mi Calm Calm - N/A   Overcast
2:15 AM 33.8 °F - 28.4 °F 81% 30.29 in 10.0 mi Calm Calm - N/A   Overcast
2:35 AM 33.8 °F - 28.4 °F 81% 30.29 in 10.0 mi Calm Calm - N/A   Overcast
2:55 AM 33.8 °F - 28.4 °F 81% 30.30 in 10.0 mi Calm Calm - N/A   Overcast
3:15 AM 33.8 °F - 28.4 °F 81% 30.31 in 10.0 mi Calm Calm - N/A   Overcast
3:35 AM 33.8 °F 30.8 °F 26.6 °F 75% 30.30 in 10.0 mi West 3.5 mph - N/A   Overcast
3:55 AM 33.8 °F 30.8 °F 26.6 °F 75% 30.30 in 10.0 mi WNW 3.5 mph - N/A   Overcast
4:15 AM 32.0 °F 28.7 °F 26.6 °F 80% 30.30 in 10.0 mi WNW 3.5 mph - N/A   Overcast
4:35 AM 32.0 °F - 26.6 °F 80% 30.30 in 10.0 mi Calm Calm - N/A   Overcast
4:55 AM 32.0 °F - 26.6 °F 80% 30.30 in 10.0 mi Calm Calm - N/A   Overcast
5:15 AM 32.0 °F - 24.8 °F 75% 30.30 in 10.0 mi Calm Calm - N/A   Overcast
5:35 AM 32.0 °F - 24.8 °F 75% 30.30 in 10.0 mi Calm Calm - N/A   Overcast
5:55 AM 32.0 °F 28.7 °F 24.8 °F 75% 30.31 in 10.0 mi West 3.5 mph - N/A   Overcast
6:15 AM 32.0 °F - 24.8 °F 75% 30.32 in 10.0 mi Calm Calm - N/A   Overcast
6:35 AM 32.0 °F 26.4 °F 24.8 °F 75% 30.33 in 10.0 mi WNW 5.8 mph - N/A   Overcast
6:55 AM 32.0 °F - 24.8 °F 75% 30.33 in 10.0 mi Calm Calm - N/A   Overcast
7:15 AM 32.0 °F - 24.8 °F 75% 30.33 in 10.0 mi Calm Calm - N/A   Overcast
7:35 AM 32.0 °F - 23.0 °F 69% 30.32 in 10.0 mi Calm Calm - N/A   Overcast
8:15 AM 32.0 °F - 23.0 °F 69% 30.32 in 10.0 mi Calm Calm - N/A   Overcast
8:35 AM 32.0 °F - 23.0 °F 69% 30.33 in 10.0 mi Calm Calm - N/A   Overcast
8:55 AM 32.0 °F 28.7 °F 23.0 °F 69% 30.33 in 10.0 mi West 3.5 mph - N/A   Overcast
9:15 AM 32.0 °F - 23.0 °F 69% 30.32 in 10.0 mi Calm Calm - N/A   Overcast
9:35 AM 32.0 °F - 23.0 °F 69% 30.33 in 10.0 mi Calm Calm - N/A   Overcast
10:15 AM 32.0 °F - 23.0 °F 69% 30.34 in 10.0 mi Calm Calm - N/A   Overcast
10:35 AM 32.0 °F - 23.0 °F 69% 30.35 in 10.0 mi Calm Calm - N/A   Overcast
10:55 AM 32.0 °F - 23.0 °F 69% 30.33 in 10.0 mi Calm Calm - N/A   Overcast
11:15 AM 33.8 °F - 23.0 °F 65% 30.33 in 10.0 mi Calm Calm - N/A   Overcast
11:35 AM 33.8 °F - 23.0 °F 65% 30.32 in 10.0 mi Calm Calm - N/A   Mostly Cloudy
11:55 AM 33.8 °F - 23.0 °F 65% 30.31 in 10.0 mi Calm Calm - N/A   Mostly Cloudy
12:15 PM 33.8 °F 30.8 °F 23.0 °F 65% 30.30 in 10.0 mi WNW 3.5 mph - N/A   Mostly Cloudy
12:35 PM 33.8 °F 30.8 °F 24.8 °F 70% 30.29 in 10.0 mi West 3.5 mph - N/A   Mostly Cloudy
12:55 PM 33.8 °F 29.6 °F 23.0 °F 65% 30.29 in 10.0 mi West 4.6 mph - N/A   Mostly Cloudy
1:15 PM 33.8 °F - 24.8 °F 70% 30.29 in 10.0 mi Calm Calm - N/A   Mostly Cloudy
1:35 PM 35.6 °F - 24.8 °F 65% 30.28 in 10.0 mi Calm Calm - N/A   Mostly Cloudy
1:55 PM 35.6 °F 30.7 °F 24.8 °F 65% 30.28 in 10.0 mi West 5.8 mph - N/A   Scattered Clouds
2:15 PM 35.6 °F 30.7 °F 24.8 °F 65% 30.28 in 10.0 mi West 5.8 mph - N/A   Scattered Clouds
2:35 PM 35.6 °F 29.9 °F 24.8 °F 65% 30.27 in 10.0 mi WSW 6.9 mph - N/A   Scattered Clouds
2:55 PM 35.6 °F 28.6 °F 24.8 °F 65% 30.26 in 10.0 mi WSW 9.2 mph - N/A   Scattered Clouds
3:15 PM 35.6 °F 31.7 °F 24.8 °F 65% 30.27 in 10.0 mi West 4.6 mph - N/A   Scattered Clouds
3:35 PM 35.6 °F 32.8 °F 26.6 °F 70% 30.26 in 10.0 mi WSW 3.5 mph - N/A   Scattered Clouds
3:55 PM 35.6 °F 32.8 °F 24.8 °F 65% 30.26 in 10.0 mi West 3.5 mph - N/A   Clear
4:15 PM 35.6 °F 32.8 °F 26.6 °F 70% 30.26 in 10.0 mi WSW 3.5 mph - N/A   Scattered Clouds
4:35 PM 33.8 °F - 24.8 °F 70% 30.26 in 10.0 mi Calm Calm - N/A   Scattered Clouds
4:55 PM 33.8 °F - 24.8 °F 70% 30.26 in 10.0 mi Calm Calm - N/A   Mostly Cloudy
5:35 PM 33.8 °F - 24.8 °F 70% 30.25 in 10.0 mi Calm Calm - N/A   Overcast
5:55 PM 32.0 °F - 26.6 °F 80% 30.25 in 10.0 mi Calm Calm - N/A   Mostly Cloudy
6:15 PM 32.0 °F - 26.6 °F 80% 30.25 in 10.0 mi Calm Calm - N/A   Scattered Clouds
6:35 PM 30.2 °F - 26.6 °F 86% 30.25 in 10.0 mi Calm Calm - N/A   Scattered Clouds
7:15 PM 28.4 °F - 24.8 °F 86% 30.25 in 10.0 mi Calm Calm - N/A   Clear
7:35 PM 30.2 °F - 26.6 °F 86% 30.26 in 10.0 mi Calm Calm - N/A   Scattered Clouds
7:55 PM 30.2 °F - 26.6 °F 86% 30.27 in 10.0 mi Calm Calm - N/A   Mostly Cloudy
8:15 PM 30.2 °F - 26.6 °F 86% 30.27 in 10.0 mi Calm Calm - N/A   Mostly Cloudy
8:35 PM 32.0 °F - 26.6 °F 80% 30.27 in 10.0 mi Calm Calm - N/A   Scattered Clouds
8:55 PM 30.2 °F - 28.4 °F 93% 30.26 in 10.0 mi Calm Calm - N/A   Scattered Clouds
9:15 PM 30.2 °F - 28.4 °F 93% 30.26 in 10.0 mi Calm Calm - N/A   Clear
9:35 PM 30.2 °F - 28.4 °F 93% 30.26 in 10.0 mi Calm Calm - N/A   Clear
9:55 PM 32.0 °F - 28.4 °F 87% 30.25 in 10.0 mi Calm Calm - N/A   Clear
10:15 PM 30.2 °F - 28.4 °F 93% 30.24 in 10.0 mi Calm Calm - N/A   Clear
10:35 PM 30.2 °F - 28.4 °F 93% 30.24 in 10.0 mi Calm Calm - N/A   Clear
10:55 PM 32.0 °F - 28.4 °F 87% 30.25 in 10.0 mi Calm Calm - N/A   Clear
11:15 PM 32.0 °F - 28.4 °F 87% 30.24 in 10.0 mi Calm Calm - N/A   Clear
11:35 PM 30.2 °F - 28.4 °F 93% 30.24 in 10.0 mi Calm Calm - N/A   Clear
11:55 PM 30.2 °F - 28.4 °F 93% 30.24 in 10.0 mi Calm Calm - N/A   Scattered Clouds